Weather History for Figari, France

Change the Weather History Date:

Tuesday, December 4, 2012

  Actual Average Record
Temperature  
Mean Temperature 56 °F -  
Max Temperature 60 °F 55 °F 66 °F (2006)
Min Temperature 53 °F 43 °F 30 °F (2013)
Degree Days  
Heating Degree Days 8    
Growing Degree Days 6 (Base 50)    
Moisture  
Dew Point 44 °F    
Average Humidity 65    
Maximum Humidity 82    
Minimum Humidity 47    
Precipitation  
Precipitation 0.00 in - - ()
Sea Level Pressure  
Sea Level Pressure 29.80 in    
Wind  
Wind Speed 20 mph ()    
Max Wind Speed 29 mph    
Max Gust Speed 48 mph    
Visibility 6.2 miles    
Events Rain    
Averages and records for this station are not official NWS values.
T = Trace of Precipitation, MM = Missing Value Source: Averaged Metar Reports

Daily Weather History Graph

Daily Weather History Graph

Search for Another Location

Airport:

Trip Planner

Search our weather history database for the weather conditions in past years. The results will help you decide how hot, cold, wet, or windy it might be!

Date:

Astronomy

Dec. 04, 2012 Rise Set
Actual Time 7:33 AM CET 4:53 PM CET
Civil Twilight 7:02 AM CET 5:24 PM CET
Nautical Twilight 6:28 AM CET 5:59 PM CET
Astronomical Twilight 5:54 AM CET 6:32 PM CET
Moon 10:27 PM CET (12/4) 11:17 AM CET (12/4)
Length of Visible Light 10h 22m
Length of Day
9h 20m
Waning Gibbous, 72% of the Moon is Illuminated
Dec 4
Waning Gibbous
Dec 6
Last Quarter
Dec 13
New
Dec 20
First Quarter
Dec 28
Full

Hourly Weather History & Observations

Time (CET) Temp. Dew Point Humidity Pressure Visibility Wind Dir Wind Speed Gust Speed Precip Events Conditions
12:00 AM 55.4 °F 44.6 °F 67% 29.98 in 6.2 mi West 19.6 mph 32.2 mph N/A   Mostly Cloudy
12:30 AM 57.2 °F 46.4 °F 67% 29.98 in 6.2 mi West 15.0 mph - N/A   Mostly Cloudy
1:00 AM 57.2 °F 46.4 °F 67% 29.98 in 6.2 mi West 21.9 mph 34.5 mph N/A   Mostly Cloudy
1:30 AM 57.2 °F 46.4 °F 67% 29.95 in 6.2 mi West 19.6 mph 31.1 mph N/A   Scattered Clouds
2:00 AM 57.2 °F 48.2 °F 72% 29.95 in 6.2 mi West 19.6 mph - N/A   Overcast
2:30 AM 57.2 °F 48.2 °F 72% 29.95 in 6.2 mi West 23.0 mph 38.0 mph N/A   Light Drizzle
3:00 AM 57.2 °F 48.2 °F 72% 29.95 in 6.2 mi West 20.7 mph 36.8 mph N/A   Mostly Cloudy
3:30 AM 57.2 °F 48.2 °F 72% 29.95 in 6.2 mi West 20.7 mph 32.2 mph N/A   Mostly Cloudy
4:00 AM 57.2 °F 48.2 °F 72% 29.92 in 6.2 mi West 23.0 mph 38.0 mph N/A   Mostly Cloudy
4:30 AM 57.2 °F 48.2 °F 72% 29.92 in 6.2 mi West 26.5 mph 40.3 mph N/A   Scattered Clouds
5:00 AM 57.2 °F 48.2 °F 72% 29.92 in 6.2 mi West 23.0 mph 35.7 mph N/A   Mostly Cloudy
5:30 AM 57.2 °F 46.4 °F 67% 29.92 in 6.2 mi West 17.3 mph - N/A   Partly Cloudy
6:00 AM 57.2 °F 46.4 °F 67% 29.89 in 6.2 mi West 15.0 mph 27.6 mph N/A   Unknown
6:30 AM 55.4 °F 46.4 °F 72% 29.89 in 6.2 mi West 11.5 mph - N/A   Unknown
7:00 AM 57.2 °F 48.2 °F 72% 29.89 in 6.2 mi West 18.4 mph 32.2 mph N/A   Partly Cloudy
7:30 AM 57.2 °F 46.4 °F 67% 29.86 in 6.2 mi West 18.4 mph - N/A   Mostly Cloudy
8:00 AM 57.2 °F 44.6 °F 63% 29.86 in 6.2 mi West 21.9 mph - N/A   Mostly Cloudy
8:30 AM 57.2 °F 42.8 °F 59% 29.86 in 6.2 mi West 24.2 mph - N/A   Partly Cloudy
9:00 AM 59.0 °F 44.6 °F 59% 29.83 in 6.2 mi West 18.4 mph - N/A   Unknown
9:30 AM 59.0 °F 48.2 °F 67% 29.83 in 6.2 mi West 20.7 mph 36.8 mph N/A   Partly Cloudy
10:00 AM 59.0 °F 48.2 °F 67% 29.83 in 6.2 mi West 21.9 mph 34.5 mph N/A   Mostly Cloudy
10:30 AM 60.8 °F 50.0 °F 68% 29.80 in 6.2 mi West 25.3 mph 41.4 mph N/A   Mostly Cloudy
11:00 AM 60.8 °F 48.2 °F 63% 29.80 in 6.2 mi West 25.3 mph 38.0 mph N/A   Mostly Cloudy
12:00 PM 60.8 °F 48.2 °F 63% 29.77 in 6.2 mi West 28.8 mph 44.9 mph N/A   Mostly Cloudy
12:30 PM 59.0 °F 48.2 °F 67% 29.74 in 6.2 mi West 26.5 mph - N/A   Mostly Cloudy
1:00 PM 53.6 °F 48.2 °F 82% 29.74 in 5.0 mi West 27.6 mph 40.3 mph N/A Rain Light Rain
1:30 PM 55.4 °F 50.0 °F 82% 29.74 in 6.2 mi West 21.9 mph 33.4 mph N/A Rain Light Rain
2:00 PM 55.4 °F 48.2 °F 77% 29.71 in 6.2 mi West 23.0 mph 41.4 mph N/A Rain Rain
2:30 PM 55.4 °F 48.2 °F 77% 29.71 in 6.2 mi West 25.3 mph 40.3 mph N/A Rain Light Rain
3:00 PM 55.4 °F 46.4 °F 72% 29.68 in 6.2 mi West 27.6 mph - N/A   Mostly Cloudy
3:30 PM 55.4 °F 46.4 °F 72% 29.71 in 6.2 mi West 24.2 mph 38.0 mph N/A   Mostly Cloudy
4:00 PM 55.4 °F 44.6 °F 67% 29.71 in 6.2 mi West 25.3 mph 39.1 mph N/A   Mostly Cloudy
4:30 PM 55.4 °F 42.8 °F 63% 29.68 in 6.2 mi West 23.0 mph - N/A   Scattered Clouds
5:00 PM 55.4 °F 44.6 °F 67% 29.71 in 6.2 mi West 21.9 mph 34.5 mph N/A   Mostly Cloudy
5:30 PM 55.4 °F 42.8 °F 63% 29.68 in 6.2 mi West 20.7 mph 33.4 mph N/A   Mostly Cloudy
6:00 PM 55.4 °F 42.8 °F 63% 29.68 in 6.2 mi West 21.9 mph 34.5 mph N/A   Mostly Cloudy
6:30 PM 53.6 °F 42.8 °F 67% 29.68 in 6.2 mi West 19.6 mph 34.5 mph N/A   Mostly Cloudy
7:00 PM 53.6 °F 41.0 °F 62% 29.68 in 6.2 mi West 18.4 mph - N/A   Mostly Cloudy
7:30 PM 53.6 °F 35.6 °F 51% 29.68 in 6.2 mi West 19.6 mph 36.8 mph N/A   Partly Cloudy
8:00 PM 53.6 °F 35.6 °F 51% 29.71 in 6.2 mi WNW 20.7 mph - N/A   Mostly Cloudy
8:30 PM 53.6 °F 35.6 °F 51% 29.68 in 6.2 mi West 27.6 mph - N/A   Overcast
9:00 PM 53.6 °F 33.8 °F 47% 29.68 in 6.2 mi WNW 27.6 mph 44.9 mph N/A   Overcast
9:30 PM 53.6 °F 35.6 °F 51% 29.68 in 6.2 mi WNW 26.5 mph 44.9 mph N/A   Overcast
10:00 PM 53.6 °F 35.6 °F 51% 29.68 in 6.2 mi WNW 26.5 mph 41.4 mph N/A   Overcast
10:30 PM 53.6 °F 35.6 °F 51% 29.68 in 6.2 mi WNW 26.5 mph 41.4 mph N/A   Overcast
11:00 PM 53.6 °F 35.6 °F 51% 29.71 in 6.2 mi WNW 25.3 mph 40.3 mph N/A   Overcast
11:30 PM 53.6 °F 33.8 °F 47% 29.71 in 6.2 mi WNW 28.8 mph 48.3 mph N/A   Overcast